GFSSE_sfc_dewp_084.txt.gz
Dewpoint
72 75 77 76 74 75 74 74 74 74 75 76 76 75 75 75 75 75 74 74 74 73 73 73 73 73 73 74 73 73 73 73 73 73 73 73 73 73 72 73 71 68 71
73 75 77 76 75 75 74 75 75 75 75 75 76 75 75 75 74 74 74 74 73 73 74 73 73 73 73 73 73 72 73 73 73 73 71 72 72 72 72 73 73 71 72
74 75 75 77 77 75 74 75 74 74 74 75 75 74 75 75 74 74 74 74 74 74 74 73 72 73 73 72 72 73 73 73 73 72 73 70 69 71 70 72 73 73 72
75 75 75 77 77 76 75 75 74 74 74 75 75 74 74 74 74 74 74 74 74 74 73 72 71 72 73 73 73 72 74 73 73 73 71 70 67 70 73 71 72 72 70
75 75 75 78 77 75 75 75 75 75 75 74 75 74 74 74 74 74 74 74 73 74 73 72 71 72 73 73 73 73 73 72 72 70 69 71 70 68 73 73 72 71 71
75 74 76 78 77 75 75 75 75 75 75 74 74 73 73 74 74 74 74 74 74 73 73 72 73 72 73 73 73 73 73 71 71 68 70 70 71 73 71 73 73 73 73
74 74 75 77 78 76 76 75 75 75 75 75 74 74 74 74 74 74 73 74 73 74 72 71 73 73 73 72 72 73 73 73 68 68 69 71 72 73 71 72 73 72 71
74 75 75 77 77 77 76 75 74 75 75 75 74 74 74 75 74 74 73 74 73 73 72 71 73 73 73 72 72 72 72 72 71 68 69 69 71 74 70 71 73 73 72
75 76 76 75 75 76 76 75 75 75 75 75 74 74 75 75 74 74 74 74 74 72 72 73 72 73 73 73 72 72 71 72 66 68 69 69 73 74 72 72 72 72 71
74 74 74 74 75 75 74 76 75 75 75 75 74 74 74 74 74 74 75 75 74 73 71 72 73 73 73 73 73 71 70 72 66 67 68 69 74 75 73 72 71 72 73
73 73 73 74 73 74 74 75 76 75 75 75 74 74 73 73 74 74 74 74 74 74 72 73 74 73 74 73 71 71 71 70 69 68 67 70 74 75 73 72 72 72 72
70 72 72 72 72 72 74 74 74 74 73 73 74 73 74 73 73 73 74 74 74 73 74 73 73 75 74 72 72 72 73 71 69 69 69 71 73 74 74 74 72 71 73
68 71 71 72 72 72 73 73 73 73 73 73 73 73 73 72 74 74 74 74 73 73 74 73 73 72 73 72 72 71 71 71 70 69 69 72 73 73 74 75 73 72 72
63 68 69 71 72 72 73 73 73 72 72 72 73 73 72 72 71 72 73 73 73 73 73 74 73 74 72 72 72 71 70 70 70 69 69 72 74 74 74 74 74 73 73
62 63 67 69 71 72 72 72 73 72 72 72 72 72 72 71 71 72 71 72 73 73 73 73 73 73 73 73 72 72 71 70 70 72 70 72 75 74 74 74 73 72 72
61 60 64 67 70 71 71 72 72 73 72 72 72 72 72 71 71 71 71 71 72 72 73 73 73 72 72 73 72 72 72 72 71 71 71 71 75 74 74 75 74 73 73
60 60 61 65 69 70 70 71 71 72 72 72 72 71 72 72 71 71 71 71 72 72 72 72 72 72 71 72 71 71 72 71 71 71 73 72 72 75 74 74 74 74 74
61 60 62 63 68 69 69 69 70 71 71 72 72 72 71 72 72 71 71 71 72 72 72 72 71 71 71 70 71 71 72 71 71 71 72 72 72 70 73 74 73 73 74
61 62 62 65 68 68 68 69 69 69 70 71 71 72 71 72 72 71 71 71 72 71 71 71 71 71 70 70 70 71 71 70 71 71 71 71 71 71 71 73 74 73 74
64 64 64 66 69 68 68 69 69 69 69 70 70 71 71 72 71 72 71 71 71 70 71 71 71 70 70 70 69 70 71 70 70 71 71 71 72 72 73 73 74 73 74
67 67 68 69 69 69 68 68 68 68 68 69 70 71 71 71 70 71 71 70 71 69 70 70 69 69 69 69 68 68 69 69 69 70 70 70 71 71 73 73 73 73 73
69 69 69 70 69 69 69 68 68 69 69 69 70 70 71 71 71 70 71 70 70 69 68 68 69 68 69 68 67 66 65 65 67 69 69 70 70 71 72 72 72 72 72
70 70 70 70 69 69 69 69 68 69 69 69 69 70 71 71 71 71 70 71 70 69 68 67 68 68 67 67 67 66 62 62 64 67 66 68 70 70 71 71 71 72 72
70 71 70 70 69 69 69 69 68 67 67 68 69 70 71 71 71 71 71 71 70 70 69 68 68 68 68 67 67 68 67 66 64 63 67 66 69 69 69 70 69 70 71
70 70 70 70 69 69 69 69 68 67 67 67 69 69 69 69 71 71 70 70 70 70 70 69 68 67 68 67 67 67 67 67 65 64 63 65 66 69 68 67 68 69 71
70 70 70 69 69 69 69 69 68 67 66 66 67 68 68 69 69 70 70 69 70 70 69 69 69 68 67 67 67 68 67 66 65 65 63 64 64 66 67 66 66 69 71

GFSSE_sfc_dewp_087.txt.gz
Dewpoint
69 71 76 77 75 75 75 74 75 76 75 76 76 76 75 75 74 74 75 74 74 74 73 73 74 74 74 73 74 74 74 73 73 73 73 73 73 73 72 71 71 66 71
69 71 77 76 76 75 75 75 75 76 76 76 76 76 75 75 75 75 75 74 74 74 74 73 73 73 74 73 73 74 73 73 73 73 74 74 73 72 73 73 70 68 71
70 71 73 75 75 76 76 75 75 76 75 75 76 76 75 75 74 74 74 74 74 74 73 73 73 73 73 73 73 73 73 73 73 72 71 66 68 72 73 73 73 73 72
70 70 71 76 76 76 76 76 75 75 75 75 75 75 75 75 74 74 74 74 74 74 73 72 73 73 72 72 73 73 73 72 73 73 67 63 63 70 71 73 73 72 72
71 70 72 77 77 75 76 76 76 75 75 75 74 74 75 75 74 74 74 74 74 73 72 71 73 73 73 73 72 74 73 73 73 70 69 67 63 72 71 72 72 71 68
71 70 75 77 76 76 75 76 76 75 75 75 74 74 74 74 74 74 74 74 74 73 72 71 72 73 72 73 73 73 72 72 71 69 70 70 66 72 73 73 71 72 72
72 71 73 77 77 76 76 75 76 76 74 74 74 73 74 75 74 74 74 74 74 73 72 73 72 73 73 73 73 73 72 70 65 65 68 68 70 73 73 73 73 73 73
72 70 73 77 77 75 75 75 75 75 75 74 74 74 74 74 74 74 74 74 74 73 72 73 73 73 72 72 72 72 72 73 67 67 66 69 72 72 70 73 72 72 70
72 73 75 75 75 76 75 75 75 75 74 74 75 75 74 74 74 74 74 74 74 73 72 73 73 73 72 72 72 72 71 72 69 68 67 65 73 72 71 72 73 73 72
73 75 76 76 76 75 75 75 76 76 75 75 74 75 75 75 74 75 75 75 74 72 72 73 73 73 73 72 72 71 70 72 66 68 66 63 73 73 73 72 71 72 71
72 73 75 75 77 76 75 74 76 75 75 74 74 74 74 72 73 73 73 74 74 72 72 73 73 73 73 72 72 71 71 68 66 66 66 71 73 74 74 73 72 71 73
70 72 74 74 75 75 75 76 75 73 73 72 72 74 72 73 75 73 73 74 74 73 72 74 74 74 73 67 68 70 68 68 68 68 68 71 73 73 74 74 74 72 72
69 70 72 72 75 74 74 73 75 73 73 73 75 75 74 73 74 72 72 71 73 73 70 71 72 71 69 68 67 67 68 68 67 68 70 73 73 72 73 75 74 72 72
68 70 72 72 74 74 74 72 73 73 73 73 73 76 74 72 74 73 71 72 74 72 73 71 69 71 71 71 67 68 68 67 66 67 69 72 73 73 73 75 75 73 72
67 68 72 73 74 74 75 73 74 74 73 73 73 75 73 72 73 72 72 70 72 72 74 73 72 72 71 70 69 70 68 68 68 69 68 72 74 75 74 75 75 74 74
66 67 70 72 73 74 74 75 74 73 73 74 73 73 75 73 73 71 72 72 71 72 73 72 73 72 71 71 71 71 70 69 70 71 68 69 73 75 75 74 74 74 74
66 66 69 71 72 73 73 73 72 73 73 74 74 75 74 74 74 73 71 76 75 74 74 74 74 73 71 72 72 70 70 70 70 71 71 70 70 75 75 74 74 74 74
66 66 67 69 71 72 73 72 71 71 72 72 73 73 74 74 74 74 71 72 76 76 76 72 71 70 70 71 72 71 69 72 72 72 71 72 71 69 73 75 74 74 74
68 66 66 69 70 72 73 72 73 74 73 73 74 72 73 73 73 73 73 73 76 76 73 75 74 72 71 73 72 72 72 70 71 69 71 72 72 71 69 72 74 74 74
68 66 66 66 69 72 72 73 72 71 72 72 72 73 74 74 72 73 74 74 75 72 75 72 72 74 73 74 72 69 74 70 70 70 70 70 71 72 72 73 72 71 74
67 67 67 67 70 69 69 69 68 67 68 70 70 73 73 73 74 74 73 74 73 73 73 73 72 72 72 73 73 72 72 70 70 69 70 69 70 71 72 73 73 72 72
68 68 68 68 70 70 68 69 68 68 69 69 70 72 73 73 74 73 73 74 73 71 71 70 70 70 72 74 72 70 64 63 66 68 69 69 70 70 70 72 73 73 73
69 69 69 70 71 71 71 70 70 71 71 69 70 70 72 73 73 73 73 73 73 72 70 72 71 69 68 70 72 71 67 59 64 67 69 68 70 70 70 72 73 73 73
69 70 71 71 72 72 73 71 71 69 68 69 70 70 71 72 73 73 73 72 73 72 72 71 71 69 68 66 69 71 69 67 60 58 66 68 70 70 72 71 70 71 72
70 70 71 72 73 73 72 72 70 70 69 70 70 72 73 74 73 72 73 73 73 73 73 72 72 70 68 67 68 71 71 70 67 63 59 61 66 68 69 69 68 69 71
70 70 71 72 73 73 72 72 72 71 71 69 70 70 70 70 71 72 72 72 73 72 72 72 71 70 68 68 69 70 70 68 67 66 62 63 63 64 67 68 68 68 70

GFSSE_sfc_dewp_093.txt.gz
Dewpoint
62 70 77 76 76 75 75 75 75 76 76 75 75 75 74 74 74 74 74 74 74 72 73 73 73 72 73 73 73 73 74 74 74 74 74 74 74 74 74 73 73 65 73
64 70 77 77 77 76 75 76 75 76 76 75 75 75 75 74 74 73 74 74 74 73 73 74 74 74 74 74 74 74 74 73 73 73 74 73 71 72 70 70 73 72 73
65 69 73 77 77 76 76 76 76 76 76 75 75 75 74 74 75 74 74 74 73 74 73 74 74 74 74 74 74 73 73 73 74 73 74 65 69 72 73 70 71 72 73
64 68 70 77 77 76 76 76 76 75 75 75 75 75 75 75 74 73 74 73 74 74 74 74 74 74 73 74 73 74 73 72 72 73 70 60 64 73 73 73 73 73 72
64 66 71 77 77 75 75 76 76 76 75 75 74 75 75 75 73 74 74 74 73 73 73 74 73 73 73 73 73 73 72 73 73 71 62 61 62 72 73 73 73 73 72
63 63 75 77 76 75 75 76 76 76 76 75 74 74 74 74 74 74 74 74 73 72 72 73 72 72 73 74 74 74 73 73 73 64 62 64 67 72 73 71 70 71 72
62 69 71 77 77 77 76 75 76 75 75 75 75 75 75 75 74 74 74 74 73 72 72 74 73 74 73 74 73 72 71 71 70 63 62 66 71 74 73 71 72 71 72
62 68 70 76 77 77 75 75 75 76 75 75 74 74 75 75 74 74 74 74 73 72 72 74 73 73 73 73 72 71 70 71 64 62 63 70 73 74 73 73 73 73 72
62 67 70 72 74 75 75 75 75 75 75 75 74 74 75 74 74 74 75 74 74 73 73 73 73 73 73 73 72 72 72 73 71 61 61 68 74 71 71 73 73 71 70
68 69 70 72 72 73 72 76 75 75 74 74 73 74 74 75 74 74 74 74 74 72 73 74 73 73 73 72 72 72 72 73 68 60 61 68 74 71 71 72 73 73 71
65 71 73 75 73 73 73 72 75 75 74 74 74 74 74 68 71 72 73 75 74 72 73 74 73 73 72 72 72 72 72 65 63 59 63 75 75 73 73 73 71 71 71
66 66 70 73 73 74 70 75 72 72 72 72 72 73 77 75 71 70 72 74 73 72 73 74 74 73 72 66 67 71 66 66 59 59 66 74 74 73 73 73 73 72 71
66 66 70 72 75 73 73 73 72 74 71 74 75 77 77 76 75 69 73 71 73 71 68 71 71 69 66 65 64 63 64 61 62 60 70 73 74 72 73 74 74 73 72
65 67 70 72 74 74 72 71 69 69 70 70 73 77 76 74 75 77 75 68 73 70 67 68 65 66 65 65 65 64 67 61 59 63 71 75 74 73 73 73 75 74 73
66 66 71 73 75 76 75 70 71 73 71 70 74 75 73 75 76 73 75 74 70 69 68 68 67 67 69 69 65 66 64 67 64 63 70 75 74 75 74 74 74 74 74
65 66 70 72 74 74 74 77 73 70 72 69 71 72 75 71 73 72 72 70 73 72 68 70 68 67 67 66 66 66 66 66 65 67 64 71 76 76 75 75 75 75 75
65 67 67 71 73 74 74 74 72 72 68 67 68 74 74 75 77 74 68 72 67 72 76 76 75 70 66 65 66 66 65 66 64 66 65 69 71 76 76 76 76 76 76
65 69 69 67 71 73 74 74 71 70 69 70 67 69 75 73 73 74 72 68 71 74 73 71 70 68 69 66 68 64 65 66 68 67 66 70 69 70 75 76 76 75 76
68 71 71 71 70 73 74 72 73 74 71 67 68 65 74 73 72 72 70 73 75 74 73 74 71 72 71 68 67 68 69 65 66 63 66 69 71 67 71 75 75 75 75
67 70 72 72 74 75 73 74 69 68 68 69 69 68 75 71 71 72 69 74 75 75 75 73 72 70 71 75 67 66 70 68 69 68 67 69 71 73 72 74 75 73 75
67 72 73 74 76 72 70 69 68 65 70 70 68 73 74 73 73 74 70 71 76 73 72 74 75 73 70 73 74 68 72 70 69 66 66 68 70 70 73 74 75 73 73
68 72 73 74 77 74 70 71 68 68 66 69 71 72 73 72 74 73 73 73 73 71 73 73 73 73 71 75 72 72 70 64 64 67 68 68 68 68 69 72 72 75 75
68 72 74 75 77 75 74 72 72 71 70 66 67 70 73 72 74 75 75 75 76 73 70 75 72 72 69 74 73 71 68 60 66 67 69 66 68 64 66 71 74 75 74
65 70 74 75 76 76 77 72 74 67 66 64 66 67 70 73 73 74 76 75 76 77 74 71 75 73 71 67 74 70 70 68 69 66 66 69 67 69 72 68 69 74 73
64 67 71 75 76 76 76 74 72 71 66 65 65 73 73 75 73 71 73 74 74 74 74 75 75 74 75 74 73 73 71 68 72 64 68 63 68 68 66 69 68 72 74
65 66 68 75 76 77 76 77 76 74 72 66 68 66 67 67 69 73 72 74 74 74 73 73 74 74 74 74 74 73 70 68 67 70 65 64 63 69 68 65 71 70 73

GFSSE_sfc_dewp_096.txt.gz
Dewpoint
67 71 77 77 77 76 76 76 76 76 75 75 75 74 74 75 74 75 75 75 74 74 74 73 72 72 73 73 74 74 74 74 74 74 75 75 75 75 75 73 73 70 71
67 71 77 77 77 77 76 76 76 76 75 75 75 75 75 75 74 74 75 74 74 74 75 74 73 73 73 74 74 74 73 74 74 74 74 73 74 72 73 75 74 72 73
67 71 73 77 77 77 77 77 76 76 74 75 75 75 75 74 74 74 74 74 74 73 74 74 74 74 75 74 74 73 73 74 75 75 75 67 68 73 71 72 74 74 73
67 70 71 77 77 77 77 77 77 76 74 75 75 75 74 75 74 74 74 74 74 74 73 74 74 74 75 74 74 74 74 74 73 74 71 66 67 73 73 74 72 73 74
67 67 72 77 77 77 77 77 77 77 75 75 74 74 75 74 74 74 74 74 74 74 74 74 74 74 74 73 74 74 72 72 72 72 72 67 70 73 74 74 73 73 74
65 67 75 77 77 76 76 77 77 77 76 76 75 75 75 75 75 74 74 74 73 73 74 73 73 72 73 74 73 74 74 73 73 70 69 69 71 74 73 72 73 73 72
64 71 74 77 77 77 77 77 77 76 76 76 75 74 75 75 74 74 74 74 73 72 74 73 72 73 74 74 74 73 72 72 69 68 69 68 72 74 72 72 71 71 71
70 70 73 77 77 77 76 76 76 76 75 75 75 75 75 75 75 74 74 74 73 72 73 74 73 73 74 73 72 71 72 71 69 68 69 70 75 75 73 73 74 73 73
69 70 73 73 75 75 75 75 76 76 75 76 75 75 75 75 74 74 75 74 74 74 73 74 74 74 73 73 72 73 73 74 71 69 69 71 75 75 74 73 72 74 72
69 70 72 73 74 74 73 76 76 76 75 75 75 75 74 75 74 74 75 75 74 73 73 74 73 74 74 73 73 73 74 73 70 68 67 69 74 73 73 73 73 72 71
68 70 72 73 74 74 74 75 76 75 74 74 73 73 74 73 73 73 74 75 74 72 73 74 73 75 74 73 73 74 73 69 66 66 67 74 74 73 73 74 74 73 72
68 69 71 72 73 73 70 74 74 73 73 73 73 74 75 75 74 72 73 74 74 72 74 74 75 75 73 69 70 73 71 68 67 67 68 75 75 75 74 74 74 72 71
70 70 72 73 74 73 73 73 72 73 73 75 75 75 76 75 75 72 75 73 73 72 71 73 73 72 70 69 67 68 67 66 65 67 70 75 75 75 75 75 75 73 72
68 70 72 73 74 75 76 73 72 71 73 73 75 75 75 74 73 75 74 72 75 71 70 71 70 70 69 68 65 67 69 68 64 69 72 74 75 75 75 75 75 75 74
67 71 72 74 75 74 75 75 73 71 73 71 74 74 75 74 73 73 74 74 74 72 70 70 71 69 69 70 70 69 68 69 69 70 71 75 75 75 75 75 75 75 75
67 71 72 74 75 75 74 76 73 73 74 74 74 74 75 74 75 72 72 73 72 73 71 70 72 69 72 69 68 69 70 69 69 71 71 74 76 75 75 76 76 76 75
68 71 72 73 75 75 75 74 74 73 71 73 72 74 74 76 74 74 72 72 72 74 76 75 75 73 70 70 71 70 69 69 68 70 71 73 74 76 76 76 76 76 76
68 71 72 71 73 74 74 74 73 73 71 71 71 74 74 74 74 76 73 74 71 75 74 75 74 73 71 71 70 70 68 69 69 70 71 71 72 71 75 75 75 76 76
69 71 72 72 73 74 75 74 74 75 74 73 72 72 75 74 74 74 74 72 75 75 75 74 73 74 73 73 71 72 71 70 71 67 69 69 71 72 72 75 76 75 76
69 72 72 73 74 75 74 75 72 72 73 71 74 73 74 74 74 75 73 74 74 74 74 75 73 74 73 71 68 67 70 70 71 71 70 68 70 72 72 73 75 74 76
69 71 73 73 75 74 73 72 72 69 70 69 72 74 74 73 74 74 72 74 74 74 73 74 73 73 72 73 72 71 72 72 72 72 71 68 70 72 71 75 73 73 73
69 71 73 73 74 74 73 72 71 71 69 70 74 74 74 73 74 73 73 74 75 74 74 74 74 73 73 72 70 69 67 69 69 68 69 70 70 70 69 72 75 74 73
68 71 72 74 74 74 74 73 72 72 75 71 71 71 72 73 74 74 74 73 75 74 71 73 72 72 70 72 73 68 65 65 67 70 69 69 69 70 70 69 72 73 75
67 71 73 74 75 74 74 72 72 69 68 70 71 72 72 74 74 74 74 74 75 74 73 71 74 72 71 69 72 70 69 69 66 66 71 71 70 70 73 73 72 74 73
67 70 73 73 76 75 74 73 72 70 70 70 71 73 73 74 74 73 74 73 73 75 73 73 73 73 73 71 71 70 71 70 70 68 66 66 70 70 69 72 71 72 74
66 69 71 74 75 76 75 75 73 72 71 69 69 70 70 72 73 74 73 74 74 74 73 73 73 73 73 73 71 71 70 69 68 68 67 66 68 69 71 70 70 73 74

GFSSE_sfc_dewp_102.txt.gz
Dewpoint
70 74 77 77 75 75 75 75 75 75 75 76 77 77 77 77 77 77 76 76 76 75 74 73 73 73 72 73 74 74 74 74 74 73 74 74 73 73 72 72 72 70 72
71 74 77 77 76 76 76 76 75 75 75 75 76 76 77 77 76 75 75 75 74 74 73 73 73 74 74 74 74 74 75 76 75 74 74 73 74 73 71 70 71 70 71
72 74 75 77 77 77 77 76 75 75 75 75 75 75 75 76 76 75 74 74 74 73 73 73 73 74 74 74 74 74 74 75 75 74 73 70 71 73 73 72 74 74 71
73 74 75 77 77 77 77 77 76 75 75 75 75 74 74 75 75 75 74 74 75 74 74 74 74 75 74 74 73 73 74 74 74 73 71 69 70 74 73 72 72 73 74
73 74 75 78 77 77 77 77 76 76 75 75 75 75 74 75 75 75 75 74 74 75 75 75 75 75 74 73 74 74 74 73 74 71 69 70 70 71 74 74 73 72 72
72 74 77 78 77 76 76 77 76 76 76 76 75 75 75 75 75 74 75 75 74 74 74 74 75 74 74 74 74 73 73 73 72 71 69 72 72 74 73 73 73 72 70
72 74 76 78 78 77 77 77 76 76 76 76 75 75 75 75 75 75 75 75 75 75 74 74 73 74 73 73 73 73 73 71 69 69 71 72 71 74 74 74 73 73 71
71 74 75 77 77 77 77 77 76 75 75 75 76 75 75 75 75 74 74 73 73 75 74 73 73 73 74 73 74 73 71 70 70 67 71 73 74 74 74 73 71 71 71
72 74 74 75 75 76 76 76 76 75 75 75 75 76 76 75 75 75 75 74 72 74 73 72 74 74 74 74 72 71 71 72 72 68 70 72 75 74 71 72 73 71 74
72 73 74 74 73 73 74 76 76 76 75 75 75 75 75 75 74 74 75 75 72 74 74 75 73 74 74 72 71 72 72 72 71 70 70 72 75 74 74 74 74 73 73
70 72 73 72 73 73 74 74 76 75 75 75 75 75 75 73 73 74 75 74 72 73 74 74 74 73 73 73 73 73 72 71 70 70 70 74 76 75 74 74 75 73 71
70 71 72 72 72 73 74 73 74 74 73 73 73 73 73 73 73 74 74 75 73 73 74 74 74 74 73 71 71 73 72 71 72 69 67 74 76 76 74 74 74 72 71
70 71 72 72 72 72 72 73 73 73 73 73 72 72 73 73 73 73 73 73 72 73 72 74 73 73 71 71 70 69 70 70 69 68 67 75 76 76 73 74 75 73 72
69 70 71 72 72 72 73 73 73 72 72 72 72 72 72 72 71 72 72 72 72 70 71 72 73 73 71 71 70 68 68 67 68 67 69 75 75 75 74 74 74 73 72
69 70 71 71 71 71 72 73 72 72 72 72 72 73 73 71 70 72 72 72 71 70 70 72 71 71 71 70 69 69 66 65 68 69 70 75 75 76 76 75 74 73 73
68 69 70 70 70 70 71 71 71 71 71 71 72 72 73 71 70 71 71 72 71 70 69 71 70 70 70 69 68 68 66 66 69 70 69 73 75 75 76 75 75 74 74
68 69 69 70 70 70 71 70 70 70 71 71 71 72 72 72 71 70 70 71 71 71 69 69 70 70 69 68 68 67 66 65 67 69 70 71 73 75 75 75 75 76 76
68 69 70 70 70 71 71 71 70 71 70 71 71 71 72 72 71 70 70 71 71 71 71 70 69 68 69 68 68 67 66 65 65 67 70 70 72 72 74 75 75 75 76
69 70 70 70 71 71 71 71 71 71 71 71 71 72 72 72 72 71 70 70 71 71 71 71 70 69 69 68 68 68 67 66 65 65 66 70 71 72 72 73 75 74 75
69 70 71 71 71 71 71 70 70 71 71 71 71 71 72 72 72 71 71 71 71 70 70 70 70 70 69 68 68 68 68 68 67 66 66 65 68 71 71 71 72 72 75
68 70 71 71 71 71 70 70 69 69 71 70 70 70 72 71 71 71 70 71 71 71 70 70 70 69 69 69 67 66 67 68 68 69 68 68 68 67 70 71 71 72 71
68 69 71 71 72 71 70 70 69 68 70 70 70 70 71 71 71 70 69 69 70 70 69 70 69 68 68 69 67 64 62 63 65 68 69 69 69 69 69 70 70 71 71
68 69 70 71 72 71 70 70 70 68 68 69 69 70 71 71 71 71 70 70 70 69 69 69 70 69 68 68 68 65 62 61 63 64 66 68 68 68 69 69 70 72 72
67 69 69 70 71 71 70 69 70 67 66 67 67 68 71 71 71 72 71 71 71 70 69 69 70 70 68 66 67 69 66 65 63 61 65 67 69 69 69 70 70 70 72
67 68 69 69 70 70 70 69 69 68 67 66 67 67 70 70 70 71 71 71 71 71 71 70 70 69 69 67 66 66 67 66 66 64 63 65 67 69 69 70 69 68 69
66 68 70 69 70 71 70 70 69 68 67 67 67 67 69 70 70 70 71 71 70 71 71 71 70 70 69 69 68 68 67 66 65 64 65 64 64 66 68 69 70 70 71

GFSSE_sfc_dewp_105.txt.gz
Dewpoint
70 73 77 76 76 76 75 75 76 77 77 77 77 77 77 77 76 76 76 76 75 74 73 73 73 74 74 74 74 73 73 72 73 74 75 74 74 73 73 74 73 71 73
70 74 77 77 76 75 75 75 75 76 76 77 77 77 77 77 76 76 76 76 74 73 73 73 73 73 73 74 74 73 73 73 74 73 73 73 72 71 71 71 72 70 71
72 74 75 77 77 75 75 75 75 76 75 75 77 77 76 76 76 75 75 74 74 74 73 73 73 73 73 74 74 73 73 74 74 73 73 71 72 70 72 73 71 71 70
72 74 74 77 77 77 76 76 76 75 75 75 76 76 77 75 75 75 74 74 73 73 73 73 73 73 74 74 73 74 73 74 73 73 70 70 70 73 72 73 73 72 73
72 73 74 77 77 76 76 77 77 76 76 75 74 75 75 76 75 74 75 74 73 73 74 74 75 74 74 73 73 74 73 73 73 72 70 69 71 73 72 72 73 74 74
73 73 76 78 77 76 76 76 76 76 76 76 75 74 75 75 75 75 74 74 75 75 74 75 75 74 73 74 74 74 73 73 73 70 69 72 70 74 73 72 71 71 72
73 73 75 77 77 77 76 76 76 76 76 76 76 75 75 75 75 75 74 74 74 74 74 74 74 74 74 74 73 73 74 72 69 69 70 72 71 74 73 73 73 70 70
72 74 74 76 77 77 76 75 75 75 75 75 76 75 75 75 76 75 75 75 75 74 74 75 74 73 73 73 73 73 72 71 69 70 72 72 73 75 74 73 73 72 71
73 74 74 74 75 76 76 75 75 75 75 75 76 76 75 75 75 74 75 74 75 75 75 73 73 73 73 73 73 72 72 73 70 69 71 72 75 75 74 73 72 72 71
73 74 74 74 74 74 74 77 76 76 75 75 75 75 75 75 75 75 75 74 74 74 73 73 74 74 74 74 72 71 72 73 71 68 70 72 75 73 72 72 71 71 74
72 73 74 74 73 73 74 75 76 75 75 75 74 75 75 73 73 73 74 73 73 75 74 74 73 74 74 72 72 73 73 71 70 70 70 73 75 73 72 73 73 72 73
70 72 73 73 73 73 73 73 73 72 73 73 74 73 73 73 73 74 74 73 72 74 74 75 74 73 72 71 71 72 72 71 71 69 70 75 75 73 74 75 74 73 72
69 71 72 72 73 73 73 73 73 73 73 72 73 73 73 73 73 74 73 73 71 72 72 74 73 72 72 71 70 69 69 70 70 69 68 75 75 75 74 73 74 73 72
69 70 71 72 72 73 73 73 73 73 73 72 72 72 72 72 72 72 72 72 72 71 72 73 72 72 71 71 70 69 68 68 68 68 68 74 75 76 75 74 74 73 72
68 69 71 71 72 72 72 73 73 72 72 72 71 72 72 71 71 72 71 72 71 70 71 71 72 72 71 71 70 69 68 66 66 68 68 74 75 75 76 73 74 74 73
69 69 70 71 71 71 72 72 72 72 72 72 72 72 72 72 70 71 71 72 71 70 69 71 70 70 70 70 69 69 68 67 68 70 69 72 75 74 75 75 75 74 73
68 68 70 70 70 70 71 72 71 72 72 71 72 72 72 71 70 71 71 71 71 70 68 68 70 70 69 69 68 68 67 66 67 69 68 71 72 75 75 76 76 75 75
68 68 69 70 70 70 70 70 70 71 71 71 71 72 72 72 70 70 70 71 71 70 69 68 68 68 68 68 68 67 67 66 65 68 68 69 71 71 73 75 75 75 75
68 68 68 69 69 69 70 70 69 70 70 71 71 71 72 72 71 70 70 70 71 70 70 69 68 68 67 68 68 68 67 66 65 65 67 69 70 71 71 73 75 75 75
68 68 69 68 69 69 70 71 70 71 70 70 71 71 71 72 71 70 70 70 70 70 70 70 69 69 68 68 68 68 68 68 67 66 65 65 70 70 71 71 71 72 75
68 68 69 68 69 69 69 70 70 69 70 70 70 71 71 72 71 71 70 70 70 70 69 70 69 68 68 68 66 66 66 68 67 68 68 66 66 67 70 70 70 70 70
68 69 69 69 70 69 69 69 69 70 70 70 70 70 72 71 71 71 70 70 70 70 69 69 69 67 68 68 65 64 62 63 64 66 68 69 68 69 67 69 70 70 71
67 69 69 70 70 70 69 69 69 68 69 69 69 70 70 71 71 71 70 70 70 70 69 69 69 68 66 67 67 65 61 60 62 64 65 67 68 69 69 69 69 70 71
66 68 70 70 70 70 70 69 68 67 66 68 68 69 70 71 71 71 70 70 70 69 69 69 69 68 67 66 66 68 65 64 61 60 64 66 68 68 68 69 70 70 72
67 68 69 71 71 71 70 69 69 67 66 67 67 68 69 70 71 71 71 70 70 70 69 69 69 69 69 66 66 66 66 66 64 63 62 64 66 68 68 69 69 69 70
66 69 69 69 70 71 70 69 69 68 66 66 67 67 68 69 70 71 71 71 70 70 70 69 69 69 69 68 67 66 65 65 64 63 64 64 64 66 67 68 69 69 69